When you browse on this site, cookies collect data to enhance your experience and personalize the content and advertising you see.
Visit our Privacy Policy to learn more. By continuing to use the site, you agree to this use of cookies and data.
  • In Romania
  • List of Countries
  • For 7 days
  • Water Temperature
  • Satellite Maps
  • Weather Map
  • Weather Widgets
  • user-avatar
    Login

    Hourly Weather Viedma

    Today, 20 June, Thursday

    Time Temperature Precipitation Wind Pressure Humidity
    00:00 +8°C° 0 mm 3 mps 759 mmHg 69%
    01:00 +7°C° 0 mm 4 mps 759 mmHg 67%
    02:00 +7°C° 0 mm 4 mps 759 mmHg 65%
    03:00 +7°C° 0 mm 4 mps 759 mmHg 66%
    04:00 +7°C° 0 mm 4 mps 758 mmHg 67%
    05:00 +7°C° 0 mm 4 mps 758 mmHg 68%
    06:00 +7°C° 0 mm 4 mps 758 mmHg 68%
    07:00 +7°C° 0 mm 4 mps 759 mmHg 68%
    08:00 +7°C° 0 mm 4 mps 759 mmHg 68%
    09:00 +8°C° 0 mm 5 mps 759 mmHg 63%
    10:00 +10°C° 0 mm 5 mps 759 mmHg 59%
    11:00 +11°C° 0 mm 6 mps 759 mmHg 54%
    12:00 +13°C° 0 mm 6 mps 759 mmHg 53%
    13:00 +13°C° 0 mm 5 mps 758 mmHg 51%
    14:00 +14°C° 0 mm 5 mps 758 mmHg 49%
    15:00 +13°C° 0 mm 5 mps 757 mmHg 52%
    16:00 +12°C° 0 mm 5 mps 756 mmHg 54%
    17:00 +11°C° 0 mm 4 mps 756 mmHg 57%
    18:00 +10°C° 0 mm 5 mps 756 mmHg 58%
    19:00 +10°C° 0 mm 5 mps 756 mmHg 59%
    20:00 +9°C° 0 mm 6 mps 756 mmHg 60%
    21:00 +9°C° 0 mm 6 mps 755 mmHg 61%
    22:00 +9°C° 0 mm 7 mps 755 mmHg 63%
    23:00 +9°C° 0 mm 7 mps 755 mmHg 64%

    Tomorrow, 21 June, Friday

    Time Temperature Precipitation Wind Pressure Humidity
    00:00 +9°C° 0 mm 7 mps 754 mmHg 64%
    01:00 +9°C° 0 mm 8 mps 754 mmHg 63%
    02:00 +9°C° 0 mm 8 mps 754 mmHg 62%
    03:00 +9°C° 0 mm 8 mps 754 mmHg 62%
    04:00 +8°C° 0 mm 7 mps 754 mmHg 62%
    05:00 +8°C° 0 mm 7 mps 754 mmHg 63%
    06:00 +8°C° 0 mm 6 mps 754 mmHg 62%
    07:00 +7°C° 0 mm 6 mps 755 mmHg 62%
    08:00 +7°C° 0 mm 5 mps 755 mmHg 62%
    09:00 +9°C° 0 mm 5 mps 755 mmHg 56%
    10:00 +12°C° 0 mm 5 mps 756 mmHg 50%
    11:00 +14°C° 0 mm 5 mps 756 mmHg 44%
    12:00 +15°C° 0 mm 5 mps 756 mmHg 42%
    13:00 +17°C° 0 mm 5 mps 756 mmHg 40%
    14:00 +19°C° 0 mm 5 mps 756 mmHg 38%
    15:00 +17°C° 0 mm 5 mps 756 mmHg 42%
    16:00 +15°C° 0 mm 5 mps 756 mmHg 45%
    17:00 +14°C° 0 mm 4 mps 757 mmHg 49%
    18:00 +13°C° 0 mm 5 mps 757 mmHg 51%
    19:00 +13°C° 0 mm 5 mps 757 mmHg 53%
    20:00 +12°C° 0 mm 5 mps 757 mmHg 54%
    21:00 +12°C° 0 mm 5 mps 757 mmHg 53%
    22:00 +12°C° 0 mm 5 mps 758 mmHg 52%
    23:00 +11°C° 0 mm 6 mps 758 mmHg 51%

    Day after tomorrow, 22 June, Saturday

    Time Temperature Precipitation Wind Pressure Humidity
    00:00 +11°C° 0 mm 6 mps 758 mmHg 50%
    01:00 +11°C° 0 mm 6 mps 758 mmHg 49%
    02:00 +11°C° 0 mm 7 mps 758 mmHg 49%
    03:00 +11°C° 0 mm 7 mps 758 mmHg 49%
    04:00 +10°C° 0 mm 7 mps 758 mmHg 49%
    05:00 +10°C° 0 mm 7 mps 758 mmHg 50%
    06:00 +10°C° 0 mm 7 mps 758 mmHg 51%
    07:00 +10°C° 0 mm 7 mps 758 mmHg 52%
    08:00 +10°C° 0 mm 7 mps 758 mmHg 53%
    09:00 +12°C° 0 mm 7 mps 758 mmHg 49%
    10:00 +14°C° 0 mm 7 mps 758 mmHg 45%
    11:00 +15°C° 0 mm 7 mps 758 mmHg 41%
    12:00 +16°C° 0 mm 7 mps 758 mmHg 41%
    13:00 +16°C° 0 mm 6 mps 757 mmHg 42%
    14:00 +16°C° 0 mm 6 mps 757 mmHg 42%
    15:00 +15°C° 0 mm 5 mps 756 mmHg 46%
    16:00 +14°C° 0 mm 4 mps 756 mmHg 51%
    17:00 +13°C° 0 mm 4 mps 756 mmHg 56%
    18:00 +13°C° 0 mm 4 mps 756 mmHg 57%
    19:00 +13°C° 0 mm 4 mps 756 mmHg 59%
    20:00 +12°C° 0 mm 5 mps 756 mmHg 61%
    21:00 +12°C° 0 mm 5 mps 756 mmHg 60%
    22:00 +11°C° 0 mm 6 mps 755 mmHg 59%
    23:00 +11°C° 0 mm 6 mps 755 mmHg 58%

    23 June, Sunday

    Time Temperature Precipitation Wind Pressure Humidity
    00:00 +11°C° 0 mm 6 mps 755 mmHg 56%
    01:00 +10°C° 0 mm 6 mps 755 mmHg 54%
    02:00 +10°C° 0 mm 6 mps 754 mmHg 52%
    03:00 +10°C° 0 mm 5 mps 754 mmHg 52%
    04:00 +9°C° 0 mm 5 mps 754 mmHg 53%
    05:00 +9°C° 0 mm 5 mps 754 mmHg 53%
    06:00 +9°C° 0 mm 5 mps 754 mmHg 55%
    07:00 +8°C° 0 mm 5 mps 754 mmHg 57%
    08:00 +8°C° 0 mm 5 mps 754 mmHg 58%
    09:00 +10°C° 0 mm 5 mps 754 mmHg 56%
    10:00 +11°C° 0 mm 6 mps 754 mmHg 54%
    11:00 +14°C° 0 mm 6 mps 754 mmHg 52%
    12:00 +14°C° 0 mm 7 mps 753 mmHg 48%
    13:00 +14°C° 0 mm 7 mps 753 mmHg 45%
    14:00 +15°C° 0 mm 7 mps 753 mmHg 42%
    15:00 +14°C° 0 mm 6 mps 753 mmHg 45%
    16:00 +13°C° 0 mm 5 mps 753 mmHg 48%
    17:00 +11°C° 0 mm 3 mps 753 mmHg 51%
    18:00 +11°C° 0 mm 3 mps 754 mmHg 55%
    19:00 +10°C° 0 mm 2 mps 754 mmHg 60%
    20:00 +9°C° 0 mm 2 mps 754 mmHg 65%
    21:00 +9°C° 0 mm 2 mps 754 mmHg 62%
    22:00 +9°C° 0 mm 2 mps 754 mmHg 60%
    23:00 +9°C° 0 mm 3 mps 754 mmHg 58%

    24 June, Monday

    Time Temperature Precipitation Wind Pressure Humidity
    00:00 +8°C° 0 mm 3 mps 753 mmHg 56%
    01:00 +7°C° 0 mm 4 mps 753 mmHg 55%
    02:00 +7°C° 0 mm 4 mps 753 mmHg 54%
    03:00 +7°C° 0 mm 5 mps 752 mmHg 52%
    04:00 +7°C° 0 mm 6 mps 752 mmHg 51%
    05:00 +7°C° 0 mm 6 mps 752 mmHg 50%
    06:00 +7°C° 0 mm 6 mps 752 mmHg 51%
    07:00 +7°C° 0 mm 5 mps 752 mmHg 52%
    08:00 +6°C° 0 mm 4 mps 751 mmHg 53%
    09:00 +8°C° 0 mm 5 mps 752 mmHg 50%
    10:00 +9°C° 0 mm 6 mps 752 mmHg 47%
    11:00 +11°C° 0 mm 7 mps 752 mmHg 44%
    12:00 +11°C° 0 mm 7 mps 751 mmHg 43%
    13:00 +11°C° 0 mm 7 mps 751 mmHg 42%
    14:00 +12°C° 0 mm 7 mps 750 mmHg 41%
    15:00 +11°C° 0 mm 7 mps 750 mmHg 48%
    16:00 +10°C° 0 mm 6 mps 751 mmHg 55%
    17:00 +9°C° 0 mm 6 mps 751 mmHg 62%
    18:00 +8°C° 0 mm 6 mps 751 mmHg 60%
    19:00 +8°C° 0 mm 7 mps 752 mmHg 58%
    20:00 +6°C° 0 mm 7 mps 753 mmHg 56%
    21:00 +5°C° 0 mm 7 mps 753 mmHg 52%
    22:00 +5°C° 0 mm 7 mps 754 mmHg 49%
    23:00 +5°C° 0 mm 7 mps 754 mmHg 46%

    25 June, Tuesday

    Time Temperature Precipitation Wind Pressure Humidity
    00:00 +4°C° 0 mm 6 mps 754 mmHg 47%
    01:00 +4°C° 0 mm 6 mps 755 mmHg 48%
    02:00 +3°C° 0 mm 5 mps 755 mmHg 49%
    03:00 +3°C° 0 mm 5 mps 755 mmHg 51%
    04:00 +3°C° 0 mm 5 mps 755 mmHg 52%
    05:00 +3°C° 0 mm 6 mps 755 mmHg 54%
    06:00 +3°C° 0 mm 6 mps 755 mmHg 54%
    07:00 +2°C° 0 mm 6 mps 755 mmHg 54%
    08:00 +2°C° 0 mm 6 mps 755 mmHg 54%
    09:00 +4°C° 0 mm 6 mps 755 mmHg 49%
    10:00 +6°C° 0 mm 7 mps 755 mmHg 44%
    11:00 +9°C° 0 mm 8 mps 755 mmHg 38%
    12:00 +10°C° 0 mm 8 mps 755 mmHg 36%
    13:00 +10°C° 0 mm 8 mps 754 mmHg 34%
    14:00 +11°C° 0 mm 8 mps 753 mmHg 32%
    15:00 +10°C° 0 mm 7 mps 753 mmHg 34%
    16:00 +9°C° 0 mm 6 mps 753 mmHg 35%
    17:00 +8°C° 0 mm 5 mps 753 mmHg 37%
    18:00 +8°C° 0 mm 6 mps 753 mmHg 39%
    19:00 +7°C° 0 mm 6 mps 753 mmHg 41%
    20:00 +7°C° 0 mm 6 mps 753 mmHg 42%
    21:00 +5°C° 0 mm 6 mps 753 mmHg 46%
    22:00 +6°C° 0 mm 5 mps 752 mmHg 49%
    23:00 +6°C° 0 mm 5 mps 752 mmHg 52%
    Show more